TimePDT,TemperatureF,Dew PointF,Humidity,Sea Level PressureIn,VisibilityMPH,Wind Direction,Wind SpeedMPH,Gust SpeedMPH,PrecipitationIn,Events,Conditions,WindDirDegrees,DateUTC
12:15 AM,57.2,41.0,55,30.16,10.0,NNW,8.1,-,N/A,,Clear,340,2013-09-09 07:15:00
12:35 AM,57.2,42.8,59,30.16,10.0,NNW,9.2,-,N/A,,Clear,330,2013-09-09 07:35:00
12:55 AM,57.2,42.8,59,30.16,10.0,North,11.5,-,N/A,,Clear,350,2013-09-09 07:55:00
1:15 AM,55.4,42.8,63,30.16,10.0,NNW,8.1,-,N/A,,Clear,340,2013-09-09 08:15:00
1:35 AM,55.4,42.8,63,30.16,10.0,North,12.7,-,N/A,,Clear,350,2013-09-09 08:35:00
1:55 AM,55.4,42.8,63,30.16,10.0,North,11.5,-,N/A,,Clear,360,2013-09-09 08:55:00
2:15 AM,55.4,42.8,63,30.16,10.0,North,13.8,-,N/A,,Clear,350,2013-09-09 09:15:00
2:35 AM,57.2,42.8,59,30.15,10.0,North,16.1,-,N/A,,Clear,350,2013-09-09 09:35:00
2:55 AM,57.2,42.8,59,30.14,10.0,North,16.1,-,N/A,,Clear,350,2013-09-09 09:55:00
3:15 AM,55.4,42.8,63,30.15,10.0,North,12.7,-,N/A,,Clear,350,2013-09-09 10:15:00
3:35 AM,55.4,41.0,58,30.15,10.0,North,9.2,-,N/A,,Clear,350,2013-09-09 10:35:00
3:55 AM,51.8,41.0,67,30.16,10.0,North,5.8,-,N/A,,Clear,10,2013-09-09 10:55:00
4:15 AM,51.8,39.2,62,30.15,10.0,NNW,9.2,-,N/A,,Clear,340,2013-09-09 11:15:00
4:35 AM,53.6,42.8,67,30.15,10.0,North,9.2,-,N/A,,Clear,350,2013-09-09 11:35:00
4:55 AM,51.8,41.0,67,30.15,10.0,NW,10.4,-,N/A,,Clear,320,2013-09-09 11:55:00
5:15 AM,53.6,42.8,67,30.15,10.0,NW,6.9,-,N/A,,Clear,310,2013-09-09 12:15:00
5:35 AM,53.6,41.0,62,30.14,10.0,NNW,12.7,-,N/A,,Clear,330,2013-09-09 12:35:00
5:55 AM,53.6,41.0,62,30.14,10.0,NW,11.5,-,N/A,,Clear,320,2013-09-09 12:55:00
6:15 AM,51.8,41.0,67,30.14,10.0,North,8.1,16.1,N/A,,Clear,360,2013-09-09 13:15:00
6:35 AM,53.6,42.8,67,30.15,10.0,NNW,6.9,-,N/A,,Clear,340,2013-09-09 13:35:00
6:55 AM,50.0,41.0,71,30.15,10.0,WNW,5.8,-,N/A,,Clear,290,2013-09-09 13:55:00
7:15 AM,53.6,42.8,67,30.15,10.0,North,12.7,-,N/A,,Clear,350,2013-09-09 14:15:00
7:35 AM,55.4,42.8,63,30.16,10.0,NNW,12.7,-,N/A,,Clear,340,2013-09-09 14:35:00
7:55 AM,57.2,42.8,59,30.16,10.0,North,12.7,-,N/A,,Clear,350,2013-09-09 14:55:00
8:15 AM,60.8,42.8,52,30.16,10.0,North,11.5,17.3,N/A,,Clear,360,2013-09-09 15:15:00
8:35 AM,60.8,42.8,52,30.16,10.0,NNW,15.0,18.4,N/A,,Clear,340,2013-09-09 15:35:00
8:55 AM,62.6,42.8,48,30.16,10.0,North,16.1,-,N/A,,Clear,350,2013-09-09 15:55:00
9:15 AM,64.4,42.8,45,30.16,10.0,North,16.1,-,N/A,,Clear,350,2013-09-09 16:15:00
9:35 AM,64.4,42.8,45,30.16,10.0,North,13.8,19.6,N/A,,Clear,350,2013-09-09 16:35:00
9:55 AM,66.2,42.8,43,30.16,10.0,North,13.8,19.6,N/A,,Clear,350,2013-09-09 16:55:00
10:15 AM,66.2,42.8,43,30.16,10.0,NNW,11.5,-,N/A,,Clear,340,2013-09-09 17:15:00
10:35 AM,69.8,42.8,38,30.15,10.0,North,10.4,-,N/A,,Clear,350,2013-09-09 17:35:00
10:55 AM,71.6,42.8,35,30.15,10.0,NNW,13.8,-,N/A,,Clear,330,2013-09-09 17:55:00
11:15 AM,71.6,42.8,35,30.14,10.0,NW,11.5,17.3,N/A,,Clear,320,2013-09-09 18:15:00
11:35 AM,73.4,42.8,33,30.14,10.0,NNW,15.0,19.6,N/A,,Clear,340,2013-09-09 18:35:00
11:55 AM,75.2,42.8,31,30.13,10.0,North,12.7,18.4,N/A,,Clear,350,2013-09-09 18:55:00
12:15 PM,75.2,42.8,31,30.13,10.0,NW,11.5,16.1,N/A,,Clear,320,2013-09-09 19:15:00
12:35 PM,77.0,41.0,28,30.12,10.0,NNW,12.7,20.7,N/A,,Clear,330,2013-09-09 19:35:00
12:55 PM,78.8,41.0,26,30.11,10.0,NNW,11.5,16.1,N/A,,Clear,330,2013-09-09 19:55:00
1:15 PM,78.8,39.2,24,30.11,10.0,NNW,8.1,-,N/A,,Clear,330,2013-09-09 20:15:00
1:35 PM,78.8,39.2,24,30.10,10.0,North,9.2,17.3,N/A,,Clear,360,2013-09-09 20:35:00
1:55 PM,80.6,39.2,23,30.09,10.0,NNW,10.4,-,N/A,,Clear,330,2013-09-09 20:55:00
2:15 PM,80.6,37.4,21,30.08,10.0,NNW,11.5,16.1,N/A,,Clear,340,2013-09-09 21:15:00
2:35 PM,82.4,39.2,21,30.08,10.0,NNW,9.2,17.3,N/A,,Clear,340,2013-09-09 21:35:00
2:55 PM,82.4,37.4,20,30.07,10.0,North,10.4,-,N/A,,Clear,350,2013-09-09 21:55:00
3:15 PM,82.4,35.6,19,30.06,10.0,North,11.5,16.1,N/A,,Clear,350,2013-09-09 22:15:00
3:35 PM,82.4,35.6,19,30.06,10.0,North,12.7,-,N/A,,Clear,360,2013-09-09 22:35:00
3:55 PM,82.4,35.6,19,30.06,10.0,North,11.5,18.4,N/A,,Clear,350,2013-09-09 22:55:00
4:15 PM,82.4,33.8,17,30.06,10.0,North,11.5,-,N/A,,Clear,360,2013-09-09 23:15:00
4:35 PM,82.4,32.0,16,30.05,10.0,North,10.4,16.1,N/A,,Clear,10,2013-09-09 23:35:00
4:55 PM,82.4,33.8,17,30.05,10.0,NNW,12.7,18.4,N/A,,Clear,330,2013-09-09 23:55:00
5:15 PM,80.6,32.0,17,30.05,10.0,NNW,11.5,-,N/A,,Clear,340,2013-09-10 00:15:00
5:35 PM,80.6,32.0,17,30.05,10.0,North,15.0,18.4,N/A,,Clear,350,2013-09-10 00:35:00
5:55 PM,78.8,33.8,20,30.05,10.0,North,12.7,18.4,N/A,,Clear,360,2013-09-10 00:55:00
6:15 PM,77.0,30.2,18,30.05,10.0,North,12.7,-,N/A,,Clear,360,2013-09-10 01:15:00
6:35 PM,75.2,30.2,19,30.05,10.0,North,12.7,-,N/A,,Clear,360,2013-09-10 01:35:00
6:55 PM,73.4,30.2,20,30.05,10.0,North,11.5,-,N/A,,Clear,360,2013-09-10 01:55:00
7:15 PM,71.6,30.2,22,30.05,10.0,North,9.2,-,N/A,,Clear,350,2013-09-10 02:15:00
7:35 PM,66.2,30.2,26,30.05,10.0,North,8.1,-,N/A,,Clear,350,2013-09-10 02:35:00
7:55 PM,62.6,33.8,34,30.05,10.0,NNW,8.1,-,N/A,,Clear,330,2013-09-10 02:55:00
8:15 PM,59.0,30.2,34,30.06,9.0,North,6.9,-,N/A,,Clear,360,2013-09-10 03:15:00
8:35 PM,57.2,30.2,36,30.06,10.0,North,6.9,-,N/A,,Clear,350,2013-09-10 03:35:00
8:55 PM,57.2,30.2,36,30.07,10.0,North,10.4,-,N/A,,Clear,350,2013-09-10 03:55:00
9:15 PM,57.2,30.2,36,30.07,10.0,North,8.1,-,N/A,,Clear,350,2013-09-10 04:15:00
9:35 PM,55.4,30.2,38,30.07,10.0,NW,4.6,-,N/A,,Clear,310,2013-09-10 04:35:00
9:55 PM,53.6,32.0,44,30.08,10.0,NW,8.1,-,N/A,,Clear,320,2013-09-10 04:55:00
10:15 PM,53.6,33.8,47,30.07,10.0,NNW,10.4,-,N/A,,Clear,330,2013-09-10 05:15:00
10:35 PM,51.8,32.0,47,30.08,10.0,NW,5.8,-,N/A,,Clear,320,2013-09-10 05:35:00
10:55 PM,53.6,32.0,44,30.08,10.0,West,5.8,-,N/A,,Clear,280,2013-09-10 05:55:00
11:15 PM,51.8,33.8,50,30.08,10.0,NW,6.9,-,N/A,,Clear,320,2013-09-10 06:15:00
11:35 PM,51.8,33.8,50,30.07,10.0,NNW,9.2,-,N/A,,Clear,340,2013-09-10 06:35:00
11:55 PM,53.6,32.0,44,30.07,10.0,NNW,11.5,-,N/A,,Clear,340,2013-09-10 06:55:00